Wetbulb
46.00 40.43 36.73 39.85 40.68 40.70 38.92 37.23 36.61 40.18 44.12 41.56 40.34 40.28 42.28 44.87 44.20 43.32 43.83 44.24 44.77 46.75 50.28 50.24 50.01 51.28 51.30 57.76 64.01 65.76 65.62 63.82 65.16 64.31 62.96 61.86 61.48 61.37 61.44 62.43 63.51 63.59 63.66 64.32
41.91 37.53 42.88 44.31 43.68 41.75 40.07 37.49 36.98 40.28 43.31 41.61 41.31 40.79 42.50 43.20 44.35 46.14 46.92 45.84 44.94 46.61 47.36 48.33 49.71 49.42 52.65 56.13 62.32 64.64 64.72 64.25 65.15 64.91 61.84 61.61 61.22 60.89 61.33 61.77 62.38 63.17 63.02 62.30
37.76 42.04 46.50 44.61 42.36 40.59 40.09 37.18 37.94 38.20 41.12 40.55 38.74 38.41 39.76 42.38 43.91 45.28 46.52 46.43 47.18 48.38 48.59 49.51 49.07 48.75 51.39 55.90 60.85 63.15 64.17 64.41 64.72 64.08 61.86 60.36 59.91 59.90 59.22 59.72 60.21 61.47 62.47 61.99
39.46 44.02 42.79 41.60 39.94 41.64 36.41 42.23 41.89 40.15 36.64 32.35 38.79 30.44 37.22 41.31 42.18 43.40 44.29 44.56 44.05 46.30 48.33 48.96 49.39 48.69 51.73 56.86 60.97 63.16 63.35 63.36 62.71 63.30 60.06 61.08 58.12 57.20 57.92 59.19 60.07 60.86 61.32 61.44
37.88 39.61 39.59 38.06 39.39 41.71 38.70 43.74 41.61 40.40 35.93 33.20 34.70 31.06 31.78 38.73 40.47 42.67 43.87 43.47 44.90 46.71 47.31 50.20 51.88 49.95 50.94 56.15 60.19 60.60 59.96 59.72 58.93 58.66 59.33 58.24 56.68 56.99 57.72 57.93 57.97 57.63 58.79 61.03
37.96 42.53 40.51 38.35 40.74 39.88 41.09 41.15 40.73 39.60 35.07 28.19 33.90 34.10 34.62 35.18 38.51 41.31 44.22 45.18 46.09 46.37 47.61 53.22 54.94 54.51 54.16 55.61 56.72 58.04 57.61 56.79 57.02 56.94 56.69 56.33 56.00 55.53 56.01 56.49 56.38 56.97 57.59 61.35
34.36 35.38 38.10 38.95 35.79 38.54 38.45 36.42 30.01 29.47 28.15 27.32 35.31 33.38 36.11 39.46 39.00 41.12 43.56 45.46 46.41 46.41 49.80 52.65 53.82 54.69 55.84 56.23 56.85 57.42 57.01 55.78 56.26 56.18 56.15 56.11 55.68 55.58 56.03 56.27 56.24 55.89 56.04 56.48
25.52 25.50 32.40 35.53 33.86 29.78 32.21 33.64 29.86 23.15 23.47 25.44 35.82 29.46 35.21 40.22 41.78 42.48 43.21 46.27 47.37 47.64 50.89 52.69 54.30 55.44 56.20 56.93 57.04 56.96 56.47 55.57 56.09 56.34 56.09 56.22 56.19 55.64 55.58 56.08 56.04 55.75 55.78 56.69
24.32 25.84 33.53 33.92 34.75 34.79 30.20 26.11 31.49 26.95 30.30 27.72 29.16 35.68 39.87 40.69 39.66 40.85 41.00 42.40 47.55 47.90 50.43 52.79 54.37 55.35 56.21 56.42 56.81 56.88 56.67 56.19 56.32 56.20 56.08 55.73 56.14 56.30 56.14 55.89 55.96 55.99 56.30 57.15
27.31 20.90 30.31 32.78 35.30 34.31 30.69 32.24 25.63 29.68 20.98 21.38 26.68 30.27 32.16 36.06 37.00 39.28 39.63 41.01 41.58 47.28 50.06 52.93 53.63 54.16 55.27 56.20 56.94 57.10 56.92 55.93 55.67 55.42 55.73 56.16 56.25 56.59 56.62 56.82 56.93 56.74 57.74 59.32
28.60 24.29 23.51 28.65 26.43 25.43 27.16 25.57 27.57 27.82 26.56 20.97 20.97 26.27 38.72 36.52 37.46 38.04 39.90 42.16 42.77 43.30 45.84 50.97 52.73 53.71 54.60 55.50 56.30 56.61 56.63 56.77 56.85 56.51 55.64 55.61 55.17 55.35 55.90 56.06 56.54 56.78 56.54 56.70
29.34 23.01 16.87 20.93 29.33 31.42 28.81 26.94 27.97 21.49 17.18 21.61 22.75 25.82 37.84 36.69 37.92 37.57 38.90 42.33 44.03 45.50 47.50 51.73 52.85 53.89 54.50 55.67 56.39 56.76 57.29 57.11 56.83 55.17 55.63 55.55 55.35 54.75 54.17 54.11 54.16 55.04 53.88 55.65
29.48 21.82 12.23 17.12 22.10 26.81 23.83 26.17 27.17 26.40 23.54 17.48 18.65 24.20 37.01 34.57 35.40 37.06 38.69 42.33 44.06 45.00 45.71 49.00 54.37 53.98 54.86 55.33 56.04 56.26 57.07 56.31 56.28 55.79 55.13 54.69 54.29 54.10 53.64 52.34 54.05 54.28 54.23 54.19
33.99 24.33 18.03 12.60 17.55 21.25 17.15 21.40 24.54 23.46 17.55 14.06 20.25 21.38 27.90 30.69 32.88 35.47 40.33 42.87 43.53 45.09 46.36 48.12 53.02 53.72 54.32 55.07 55.43 55.82 55.63 55.93 55.19 54.82 54.13 53.58 53.55 53.22 52.73 52.98 53.56 53.57 53.99 53.94
28.80 21.01 21.74 22.90 24.80 24.71 22.98 22.91 23.41 18.96 21.48 17.16 20.76 20.98 25.92 29.71 31.70 34.11 39.46 41.96 42.99 44.60 45.50 46.92 48.18 53.53 54.27 54.39 54.77 55.48 55.17 54.82 54.62 53.63 53.11 52.74 53.18 52.77 52.38 52.49 53.06 53.51 53.64 53.76
26.02 18.58 20.31 18.16 23.42 23.36 21.16 23.47 24.02 23.80 23.85 23.10 24.28 23.01 30.58 32.41 32.80 35.41 38.66 40.75 41.95 44.26 45.29 46.36 48.58 51.78 53.81 53.11 53.97 54.48 54.20 54.32 54.17 52.98 52.28 52.35 51.81 51.80 52.06 52.55 52.90 52.88 52.97 53.35
21.96 20.50 16.16 11.52 19.80 21.29 15.83 21.34 22.87 24.03 25.91 24.79 19.70 25.80 30.59 29.99 31.68 33.13 37.13 41.48 42.79 44.07 45.05 46.20 48.35 48.49 53.70 53.30 53.73 53.48 53.24 53.67 52.77 52.05 51.66 51.54 51.51 51.47 51.77 52.20 51.91 51.68 51.92 52.73
21.03 19.14 18.92 10.97 17.65 7.75 19.67 27.47 28.08 26.58 28.50 29.49 28.92 30.04 31.46 31.88 33.88 34.97 40.69 41.99 42.81 44.86 45.43 46.49 47.88 49.41 49.51 54.48 53.75 53.77 53.26 52.59 51.88 51.22 51.12 51.21 51.03 50.51 51.05 50.94 50.61 50.67 51.08 51.19
24.91 21.41 9.24 12.18 12.88 17.31 23.82 27.24 28.61 26.71 26.13 33.17 32.71 33.52 34.39 35.62 34.62 35.99 42.75 43.87 44.57 45.33 46.67 47.33 48.61 49.49 49.83 53.53 53.80 53.26 52.03 51.55 51.01 50.48 50.61 50.50 50.21 49.87 50.17 49.49 49.37 49.96 49.97 50.02
24.50 23.56 17.59 18.05 12.42 11.81 21.54 31.87 35.27 33.97 22.66 33.89 33.88 33.50 33.93 34.49 28.63 32.14 41.10 44.31 45.18 46.40 47.77 47.92 48.97 50.00 50.87 53.49 53.86 52.68 51.28 50.77 50.16 50.88 50.06 50.09 50.06 49.81 49.22 48.75 48.34 48.91 49.24 48.94
19.20 16.56 17.72 19.13 13.64 19.06 27.90 33.58 34.77 21.41 24.01 34.90 35.48 35.66 36.57 32.97 33.87 37.86 43.00 42.60 44.62 46.51 47.74 49.14 49.58 50.27 51.59 52.85 53.45 52.02 51.10 50.27 50.92 50.52 49.81 49.51 49.63 49.32 49.18 48.55 48.63 48.52 48.12 47.93
17.60 6.96 12.88 14.56 11.45 14.58 33.78 31.34 24.87 29.83 36.02 36.49 36.36 35.89 38.47 39.36 39.61 40.38 40.64 41.30 43.55 44.01 44.93 47.18 50.91 52.39 52.33 52.78 53.04 51.60 50.61 50.92 50.34 49.60 49.00 48.64 48.92 49.24 49.13 48.15 47.74 47.46 46.31 45.36
14.68 19.59 15.28 19.21 19.71 31.62 31.04 30.74 33.79 35.39 35.01 37.55 36.21 36.72 36.05 37.25 37.98 37.79 36.84 37.87 40.08 42.42 42.79 45.52 48.43 52.10 52.54 52.85 53.02 51.09 49.92 49.95 49.35 48.60 48.07 48.37 48.83 49.12 48.95 47.51 46.57 45.52 44.86 43.57
22.42 27.74 24.23 24.13 26.53 28.03 30.41 32.05 35.42 35.63 35.72 38.14 38.50 36.48 35.90 34.60 36.43 36.40 36.20 37.10 38.07 40.00 41.56 43.49 44.13 51.17 51.42 52.81 53.00 51.33 49.96 49.72 48.78 47.69 47.79 48.22 48.20 48.34 48.51 47.99 47.20 45.59 44.07 43.12
22.61 24.62 22.58 22.04 25.70 27.85 30.59 32.99 34.28 35.24 36.15 37.22 37.33 36.66 35.96 36.57 36.77 36.07 36.07 37.16 38.01 38.83 40.62 41.98 42.37 48.95 51.42 52.70 51.74 50.67 49.96 49.33 47.90 47.74 47.74 47.93 48.49 48.01 47.50 47.43 46.63 45.69 44.57 44.62
24.28 22.92 20.56 19.97 26.30 27.21 28.00 32.64 34.52 33.93 34.11 35.18 35.22 35.10 36.21 36.79 36.08 36.67 35.63 36.83 37.10 38.21 39.67 40.33 41.65 42.34 50.79 51.60 50.79 49.95 49.88 49.20 48.08 47.19 47.41 47.87 47.74 46.89 46.28 45.23 44.00 46.92 46.68 45.95
MSLP
1011.97 1012.98 1013.22 1013.06 1013.39 1013.36 1013.46 1013.39 1012.90 1012.15 1011.02 1010.61 1010.02 1009.26 1009.15 1008.58 1008.35 1007.85 1007.45 1006.91 1006.34 1005.94 1004.88 1004.54 1004.62 1004.47 1004.88 1005.56 1005.85 1006.17 1007.05 1007.92 1008.77 1009.78 1010.55 1011.17 1011.44 1011.99 1012.40 1012.82 1012.97 1013.08 1013.37 1013.68
1012.89 1012.81 1012.72 1012.94 1013.14 1013.30 1013.56 1013.44 1012.70 1011.74 1010.74 1010.45 1009.97 1008.70 1008.89 1008.65 1008.08 1007.38 1006.61 1006.01 1005.71 1005.29 1004.75 1004.16 1003.82 1004.17 1004.79 1004.75 1005.42 1005.77 1006.66 1007.30 1007.95 1008.93 1009.79 1010.26 1011.12 1011.81 1012.16 1012.64 1012.81 1012.94 1013.12 1013.50
1013.14 1012.66 1012.44 1012.81 1012.87 1012.98 1012.81 1012.96 1012.40 1011.66 1010.93 1010.33 1010.05 1008.80 1008.57 1008.08 1007.34 1006.56 1005.71 1005.09 1004.87 1004.52 1004.07 1003.83 1003.68 1003.74 1004.26 1004.62 1005.07 1005.35 1006.04 1006.74 1007.53 1008.57 1009.61 1010.37 1011.12 1011.94 1012.50 1012.88 1013.06 1013.11 1013.19 1013.45
1012.59 1012.06 1012.21 1012.27 1012.46 1012.22 1012.03 1011.81 1011.45 1011.42 1011.48 1011.01 1010.13 1009.44 1008.82 1007.94 1006.92 1006.11 1005.27 1004.87 1004.52 1004.01 1003.49 1003.27 1003.23 1003.33 1003.66 1004.21 1004.67 1004.77 1005.68 1006.55 1007.53 1008.31 1009.13 1009.89 1010.48 1011.64 1012.13 1012.46 1012.82 1013.11 1013.26 1013.50
1012.68 1012.19 1012.02 1012.03 1012.07 1012.07 1011.73 1011.27 1011.35 1011.37 1011.57 1011.26 1011.01 1011.15 1008.40 1008.37 1007.69 1006.59 1005.73 1004.92 1004.52 1004.29 1004.08 1003.73 1003.02 1003.00 1003.60 1003.83 1004.51 1005.10 1005.89 1006.76 1007.54 1008.22 1008.99 1009.79 1010.54 1011.16 1011.80 1012.40 1012.90 1013.29 1013.47 1013.46
1013.54 1012.73 1012.78 1012.62 1012.22 1012.30 1012.02 1011.74 1011.89 1011.93 1012.22 1011.93 1011.61 1011.41 1008.08 1009.25 1008.74 1007.64 1006.62 1005.43 1004.86 1004.84 1004.65 1004.50 1004.10 1003.76 1004.26 1004.71 1005.22 1005.41 1006.18 1007.34 1007.93 1008.49 1009.31 1009.88 1010.54 1011.21 1011.95 1012.60 1013.16 1013.33 1013.40 1013.50
1014.79 1014.35 1014.02 1013.70 1013.24 1013.08 1013.04 1013.31 1014.60 1014.23 1013.59 1012.60 1011.61 1011.83 1009.64 1009.84 1010.28 1010.26 1008.20 1006.65 1005.90 1005.58 1005.42 1005.24 1005.03 1004.66 1004.74 1005.21 1006.04 1006.23 1006.84 1008.11 1008.60 1008.99 1009.62 1010.06 1010.69 1011.25 1011.69 1012.24 1012.77 1013.31 1013.57 1013.70
1016.54 1016.22 1015.89 1015.66 1015.61 1015.48 1015.26 1015.52 1015.56 1015.75 1015.12 1014.26 1013.18 1012.00 1010.99 1011.19 1011.19 1010.12 1009.54 1008.63 1007.78 1007.52 1006.42 1005.95 1005.97 1005.71 1005.78 1005.75 1006.06 1007.12 1007.93 1008.59 1009.08 1009.40 1009.86 1010.24 1010.65 1011.23 1011.68 1012.13 1012.70 1013.25 1013.52 1013.67
1017.92 1018.02 1017.55 1017.18 1016.85 1016.39 1016.95 1017.13 1017.50 1017.38 1016.34 1016.08 1013.84 1012.02 1011.30 1011.30 1011.47 1011.45 1011.40 1010.60 1009.95 1008.87 1008.31 1008.00 1007.01 1006.72 1006.78 1006.97 1007.43 1007.59 1008.49 1009.22 1009.61 1009.94 1010.22 1010.66 1011.05 1011.41 1011.88 1012.43 1012.78 1013.15 1013.42 1013.65
1019.24 1019.28 1018.87 1018.54 1017.61 1017.82 1018.53 1018.98 1018.73 1018.52 1018.03 1016.75 1014.30 1013.22 1012.27 1012.43 1012.72 1013.17 1012.58 1012.11 1011.20 1009.99 1009.47 1009.20 1008.50 1008.10 1007.71 1007.90 1007.96 1008.17 1008.60 1009.37 1009.89 1010.39 1010.64 1011.03 1011.44 1011.70 1012.02 1012.46 1012.91 1013.17 1013.39 1013.57
1019.61 1020.34 1020.50 1019.89 1019.94 1019.88 1019.80 1019.81 1019.84 1019.94 1019.46 1018.22 1016.49 1014.34 1013.78 1014.08 1014.16 1013.98 1013.44 1013.08 1012.19 1010.92 1010.59 1010.20 1009.30 1008.66 1008.69 1008.47 1008.51 1008.61 1008.86 1009.66 1010.19 1010.61 1011.10 1011.46 1011.77 1012.07 1012.38 1012.63 1012.96 1013.20 1013.54 1013.82
1020.34 1021.08 1021.82 1021.68 1020.82 1020.51 1020.86 1021.42 1021.54 1021.53 1021.00 1020.11 1018.72 1015.66 1014.88 1014.57 1014.43 1014.46 1014.10 1013.38 1012.83 1011.41 1010.96 1010.33 1009.66 1009.10 1008.87 1009.13 1009.07 1009.26 1009.15 1010.02 1010.20 1011.06 1011.51 1011.69 1012.03 1012.32 1012.70 1013.04 1013.23 1013.57 1013.85 1014.00
1020.56 1021.74 1022.63 1021.84 1022.01 1021.69 1022.12 1022.27 1022.69 1022.72 1022.34 1021.27 1019.84 1016.52 1015.13 1015.01 1014.72 1014.36 1014.22 1013.97 1013.74 1011.86 1011.09 1010.59 1009.68 1009.21 1008.72 1009.23 1009.45 1009.39 1009.75 1010.20 1010.72 1011.37 1011.59 1011.90 1012.28 1012.71 1013.10 1013.37 1013.59 1013.88 1014.08 1014.31
1021.01 1022.38 1023.26 1023.42 1023.20 1022.98 1022.97 1023.06 1022.78 1022.75 1022.56 1021.57 1019.95 1018.02 1015.88 1015.32 1015.06 1014.25 1014.12 1013.93 1012.42 1011.80 1011.31 1010.94 1010.00 1009.24 1008.61 1009.18 1009.45 1009.78 1010.23 1010.70 1011.14 1011.66 1011.82 1012.14 1012.54 1012.97 1013.40 1013.71 1014.00 1014.13 1014.25 1014.33
1021.75 1022.82 1023.60 1023.89 1023.38 1023.09 1022.99 1022.68 1022.04 1021.85 1021.40 1020.78 1019.38 1018.04 1016.43 1015.30 1014.39 1013.76 1013.50 1012.91 1012.41 1011.51 1011.24 1010.91 1010.55 1009.13 1008.81 1008.95 1009.33 1009.95 1010.33 1010.95 1011.36 1011.75 1012.13 1012.45 1012.90 1013.38 1013.70 1014.01 1014.16 1014.26 1014.40 1014.51
1022.74 1023.49 1023.83 1023.75 1023.58 1023.24 1022.40 1021.44 1020.90 1020.33 1019.67 1018.86 1017.94 1016.57 1015.87 1014.67 1013.88 1013.23 1012.71 1012.46 1012.01 1011.25 1010.46 1010.25 1010.61 1008.31 1008.62 1008.77 1008.99 1009.81 1010.45 1010.87 1011.49 1011.99 1012.42 1012.85 1013.26 1013.63 1013.96 1014.23 1014.27 1014.37 1014.69 1014.83
1023.26 1024.10 1024.72 1024.66 1023.80 1023.32 1022.01 1019.84 1019.34 1018.85 1017.96 1017.48 1016.72 1015.48 1014.68 1013.97 1013.15 1012.68 1012.33 1012.02 1011.70 1011.36 1010.28 1010.46 1011.14 1009.99 1008.64 1008.31 1008.62 1009.39 1010.05 1010.85 1011.49 1012.13 1012.55 1013.02 1013.45 1013.86 1014.21 1014.37 1014.40 1014.78 1015.06 1015.10
1023.06 1024.56 1025.54 1025.43 1024.47 1023.30 1020.28 1018.91 1018.35 1017.77 1016.78 1016.14 1015.68 1014.95 1014.07 1013.16 1012.15 1011.73 1011.35 1011.34 1011.26 1010.97 1011.31 1010.96 1010.68 1008.98 1008.65 1008.15 1008.50 1009.20 1009.91 1010.60 1011.40 1012.10 1012.49 1013.13 1013.67 1014.10 1014.42 1014.50 1014.79 1015.26 1015.53 1015.61
1022.63 1024.39 1025.55 1025.61 1024.69 1021.91 1019.41 1018.36 1017.65 1017.13 1015.97 1016.12 1015.58 1014.64 1013.30 1012.19 1011.50 1010.63 1010.34 1010.63 1010.53 1010.43 1009.80 1009.88 1009.46 1009.00 1008.46 1008.17 1008.30 1008.98 1010.01 1010.68 1011.18 1012.01 1012.55 1013.28 1013.83 1014.26 1014.62 1014.83 1015.26 1015.80 1016.03 1016.16
1023.07 1024.21 1025.06 1025.19 1024.15 1021.85 1019.02 1017.94 1016.90 1016.57 1015.75 1015.14 1015.23 1014.10 1012.37 1010.84 1011.12 1010.29 1010.01 1010.14 1010.23 1010.23 1010.06 1009.74 1009.44 1008.90 1007.82 1007.82 1008.13 1008.89 1009.92 1010.71 1011.11 1011.88 1012.66 1013.42 1013.96 1014.42 1014.81 1015.22 1015.69 1016.34 1016.51 1016.70
1023.79 1024.50 1024.78 1024.30 1022.99 1020.66 1018.65 1017.35 1016.41 1016.57 1016.11 1015.00 1014.51 1013.47 1012.27 1011.78 1011.46 1010.43 1009.95 1010.03 1010.02 1010.17 1009.94 1009.63 1009.23 1008.61 1007.98 1008.07 1008.33 1008.94 1009.86 1010.64 1011.09 1011.93 1012.87 1013.65 1014.17 1014.65 1015.09 1015.57 1016.15 1016.70 1016.99 1017.26
1022.86 1023.72 1023.99 1023.23 1022.06 1019.88 1017.81 1016.97 1016.90 1016.14 1015.24 1015.13 1014.00 1013.32 1012.73 1012.30 1011.47 1010.38 1010.31 1009.96 1009.86 1009.94 1010.14 1009.98 1009.30 1008.33 1007.40 1007.46 1008.19 1008.98 1009.86 1010.64 1011.30 1012.11 1013.10 1013.83 1014.35 1014.90 1015.42 1015.81 1016.63 1017.10 1017.40 1017.93
1022.19 1021.92 1021.85 1021.31 1019.62 1017.77 1017.06 1016.78 1016.06 1015.57 1014.89 1014.18 1013.74 1013.12 1012.41 1012.07 1011.58 1011.09 1010.79 1010.42 1010.15 1010.11 1010.34 1009.93 1009.14 1008.35 1007.99 1008.02 1008.28 1009.00 1010.03 1010.82 1011.58 1012.35 1013.35 1014.03 1014.57 1015.14 1015.69 1016.12 1016.83 1017.46 1018.07 1018.53
1021.45 1020.74 1020.48 1019.84 1018.38 1017.66 1017.06 1016.11 1015.58 1014.99 1014.48 1013.82 1013.11 1012.81 1012.20 1011.60 1011.32 1011.12 1010.95 1010.61 1010.51 1010.31 1010.54 1010.30 1009.56 1008.34 1008.34 1008.46 1008.90 1009.22 1010.06 1010.88 1011.68 1012.54 1013.52 1014.23 1014.76 1015.37 1015.94 1016.47 1017.06 1017.58 1018.35 1018.96
1020.76 1020.32 1019.55 1018.92 1017.94 1017.34 1016.36 1015.76 1015.10 1014.68 1013.97 1013.46 1012.85 1012.36 1011.84 1011.46 1011.14 1011.18 1011.29 1011.02 1010.69 1010.60 1010.54 1010.39 1009.79 1008.80 1008.50 1008.73 1009.26 1009.79 1010.35 1010.90 1011.87 1012.79 1013.64 1014.40 1015.00 1015.49 1016.12 1016.71 1017.30 1017.84 1018.59 1018.87
1019.69 1018.80 1018.75 1017.67 1016.78 1016.48 1016.07 1015.35 1014.81 1014.37 1013.85 1013.22 1013.02 1012.38 1011.63 1011.18 1011.25 1011.20 1011.30 1011.04 1010.81 1010.57 1010.63 1010.10 1009.44 1009.03 1009.01 1009.06 1009.54 1010.11 1010.56 1011.04 1011.85 1012.92 1013.74 1014.45 1015.11 1015.76 1016.28 1017.00 1017.93 1018.52 1018.89 1019.49
Wind_Speed
3 3 7 12 8 5 4 4 9 8 9 7 7 9 10 10 10 10 10 11 10 11 12 8 9 9 7 8 14 17 15 12 11 8 6 4 5 3 3 4 6 6 5 6
3 6 11 8 6 7 8 9 12 9 9 5 12 19 8 7 10 15 17 12 11 11 10 11 10 7 9 15 16 17 15 16 13 10 4 4 4 3 3 3 3 4 4 4
6 7 2 7 9 11 11 7 10 12 5 3 5 16 9 6 8 9 12 11 10 14 14 12 9 8 7 13 17 18 18 18 13 11 7 5 5 4 3 2 2 3 4 4
6 6 8 9 7 11 10 10 12 6 4 9 5 12 8 10 12 9 12 10 9 10 7 8 8 7 10 14 15 19 17 17 11 13 8 12 5 5 3 4 3 3 3 5
7 7 5 5 2 2 8 6 6 3 4 4 4 2 2 5 17 17 13 5 2 4 4 5 5 6 4 8 13 13 12 11 10 8 8 7 6 4 4 3 4 3 4 5
4 5 3 3 2 8 6 3 2 1 1 8 7 6 16 4 4 11 6 2 3 3 3 4 4 7 8 7 7 12 14 9 10 9 8 9 9 7 5 4 4 3 2 3
6 3 1 7 5 5 9 6 4 4 2 10 6 6 15 12 11 13 19 8 4 4 4 3 4 7 9 11 8 10 14 10 9 9 8 8 8 7 7 6 5 5 3 2
2 4 7 10 4 3 3 2 1 5 4 5 6 7 6 2 9 17 18 18 10 12 3 6 6 6 8 11 13 11 10 9 8 9 8 6 7 4 4 4 5 4 3 4
3 3 3 12 10 3 5 3 2 4 8 3 6 7 4 14 19 21 20 19 16 10 7 7 6 7 9 10 9 12 12 9 8 8 7 7 6 7 7 6 5 4 4 4
1 4 3 4 3 8 4 4 2 3 5 7 7 5 1 13 14 14 18 19 18 18 12 7 5 5 6 8 10 11 11 10 9 7 6 6 6 5 6 6 6 6 4 4
2 3 4 3 4 3 5 4 2 1 3 5 4 3 5 10 13 14 14 15 16 16 15 9 3 3 4 5 6 10 10 10 8 7 5 6 6 6 6 7 6 5 5 4
1 4 3 3 7 6 5 4 5 1 5 4 4 4 5 8 7 11 16 15 15 13 14 13 5 4 5 4 4 7 10 7 8 7 7 8 8 8 7 6 5 5 4 4
3 2 4 7 4 5 3 3 6 5 5 7 6 4 5 17 13 7 11 12 13 11 16 17 6 6 7 5 4 6 7 8 9 8 9 8 7 8 6 6 5 4 3 2
5 3 7 6 5 5 4 5 7 5 6 5 12 18 22 16 15 14 6 12 9 9 10 13 11 8 8 7 7 7 7 8 9 8 8 8 7 7 6 5 4 3 2 1
3 5 5 6 9 10 9 13 14 9 12 11 14 16 17 17 18 14 6 5 8 13 13 13 16 8 7 9 8 8 8 8 8 7 7 7 8 7 6 4 4 4 3 2
3 2 2 4 4 7 15 18 17 18 19 18 19 22 14 15 12 9 8 6 9 9 14 12 16 14 11 10 11 10 9 9 9 8 8 8 8 7 5 4 5 6 4 4
4 2 4 6 2 5 10 11 7 7 11 11 14 19 14 15 16 12 9 7 7 4 10 11 13 17 8 10 12 13 12 11 10 9 9 8 8 7 5 6 8 6 5 7
6 5 3 4 3 3 9 6 9 11 13 12 11 14 15 17 19 12 11 8 6 4 7 4 8 11 11 8 11 11 11 12 10 9 9 8 8 7 6 8 9 7 7 8
6 5 1 2 3 8 7 1 6 7 14 8 10 16 19 18 7 8 11 8 6 3 5 7 10 12 14 9 12 13 11 10 12 9 9 8 8 8 7 9 9 7 8 9
6 4 5 3 4 5 2 8 13 16 6 11 16 19 21 3 4 4 10 8 7 5 2 8 11 13 9 7 12 13 12 10 11 10 10 9 8 8 9 10 9 5 8 9
4 2 10 10 4 8 5 8 10 5 6 13 14 17 9 6 4 6 4 4 6 4 2 7 14 13 6 8 11 13 12 10 11 12 10 9 9 9 10 10 8 8 10 11
6 5 5 2 3 7 4 5 2 7 3 6 16 6 6 2 7 7 7 6 6 9 7 7 11 7 7 14 13 13 12 11 12 13 11 10 10 8 8 12 9 9 10 11
2 8 5 8 7 4 2 6 9 6 8 7 9 11 5 2 3 4 6 5 5 8 5 6 13 2 3 6 11 13 12 13 12 13 11 10 10 9 10 12 11 9 9 8
4 4 5 1 5 3 7 7 5 4 4 7 7 6 5 2 1 3 5 6 5 5 5 3 10 3 5 4 7 10 13 13 13 13 11 10 10 10 10 8 8 8 7 7
6 2 4 5 7 6 7 7 7 6 7 7 8 6 8 7 2 3 3 5 5 4 5 5 5 4 2 6 8 11 12 13 12 12 11 10 9 10 9 7 6 7 5 5
6 8 6 9 8 6 7 9 9 6 8 7 5 9 7 2 2 4 3 4 4 5 5 6 7 8 4 6 9 10 11 13 14 12 10 8 8 7 7 7 6 8 12 14
Wind_Direction
218 151 203 223 209 217 235 277 274 273 271 276 257 261 265 278 305 282 271 265 254 258 257 237 228 254 174 183 176 176 164 153 144 145 149 140 149 137 118 143 154 149 153 157
356 235 232 231 238 236 252 261 270 275 248 268 292 279 261 243 247 252 270 261 251 248 257 254 249 207 185 172 187 170 166 161 161 159 152 127 135 132 126 139 155 163 159 145
188 242 227 223 250 255 247 236 257 263 272 261 282 287 296 267 254 265 257 257 258 259 254 247 240 221 181 179 181 172 171 167 161 149 122 92 89 70 92 141 175 201 177 170
219 267 235 263 246 218 258 224 243 261 288 273 148 292 273 276 292 287 278 282 282 255 240 230 238 218 182 188 190 176 167 164 155 153 140 155 147 141 174 163 168 173 182 185
256 330 341 318 280 279 244 235 236 252 241 301 160 185 294 15 298 290 286 303 340 313 302 279 206 202 191 154 174 159 143 139 137 135 140 138 125 121 131 122 144 170 199 188
245 285 3 289 346 85 307 323 315 351 135 272 190 173 285 222 284 309 349 265 195 254 12 33 44 84 89 88 117 134 122 116 121 121 125 132 139 143 133 143 151 149 148 136
349 359 65 17 347 37 28 62 334 287 252 246 193 184 252 353 15 342 320 277 284 350 69 69 89 110 117 108 96 108 120 119 123 121 128 137 136 150 161 155 142 140 134 118
82 318 358 337 53 338 330 260 147 259 230 276 312 235 247 22 8 15 5 355 353 342 21 78 50 73 93 108 110 101 108 106 103 107 108 109 123 128 130 132 131 140 143 146
28 179 150 35 41 37 346 36 190 240 270 246 236 267 189 19 22 11 360 360 349 340 359 4 52 71 87 92 93 109 106 98 96 103 105 102 112 120 127 129 136 145 147 162
88 319 356 354 1 66 99 272 3 248 252 238 260 224 240 14 7 358 358 352 349 350 358 351 31 51 82 100 112 105 108 112 113 103 108 114 127 124 121 120 117 113 107 116
105 120 277 65 72 282 339 325 313 314 268 242 276 251 84 26 358 350 340 334 340 349 345 321 337 67 61 91 111 120 112 122 120 114 102 104 99 100 106 103 95 90 90 106
29 128 279 214 242 266 248 4 35 284 295 274 280 262 105 38 19 350 334 331 327 344 345 312 249 155 114 97 115 140 118 125 113 112 117 108 103 92 88 92 91 88 86 74
138 104 352 338 28 31 29 359 322 252 205 224 269 271 288 326 319 320 313 314 293 335 344 336 233 199 139 142 144 113 120 122 120 125 117 112 107 106 97 89 80 80 104 121
125 145 162 204 229 225 289 270 254 236 258 251 259 287 294 309 302 298 229 250 320 327 350 323 283 200 155 165 154 124 134 139 132 132 120 117 108 102 99 101 115 123 121 136
117 195 199 221 245 270 277 272 275 256 248 243 273 267 275 289 292 294 236 280 302 319 313 338 338 208 171 166 144 144 137 138 135 127 125 116 113 113 116 126 128 112 96 100
36 269 200 260 242 258 286 285 268 266 268 265 259 263 268 269 288 289 256 269 292 306 310 337 325 296 179 166 148 150 144 139 141 133 126 122 122 124 127 127 116 90 92 104
134 123 61 278 285 322 287 261 243 237 250 253 262 264 260 272 276 268 264 234 263 297 322 335 305 322 208 171 161 156 147 143 136 133 131 125 127 126 124 116 95 87 82 90
132 123 138 264 332 265 242 262 259 264 271 281 290 290 282 268 269 275 229 207 235 255 267 304 276 298 333 199 161 142 144 143 136 140 128 130 128 123 122 107 96 88 89 86
146 134 216 173 226 273 274 340 340 308 302 20 333 311 303 287 259 259 187 203 194 227 314 327 326 318 317 214 155 140 142 144 135 143 135 133 132 129 124 107 101 99 99 90
120 151 135 172 216 260 314 342 320 311 285 9 315 297 303 230 161 259 186 209 189 186 318 324 313 283 295 160 152 142 145 150 143 146 134 132 134 127 121 112 100 104 99 94
123 165 210 235 244 277 246 270 294 327 305 342 316 318 359 7 283 289 154 202 157 164 86 323 294 279 286 170 160 150 150 155 142 126 125 126 126 121 118 111 107 114 109 105
168 147 201 149 182 266 182 325 31 262 269 4 303 303 328 14 320 26 7 26 67 55 346 304 279 278 308 163 156 149 149 142 132 125 126 126 127 123 124 116 110 114 114 112
272 186 202 182 215 255 286 248 278 277 262 234 283 300 313 356 327 30 340 4 37 88 318 1 318 131 29 140 150 143 138 137 131 123 126 129 127 125 128 125 124 117 113 110
274 214 218 167 262 249 271 281 257 269 289 277 290 293 303 219 60 48 358 350 11 26 8 354 316 8 93 104 136 135 140 136 131 127 130 132 131 128 128 123 128 127 127 121
196 243 222 263 275 279 273 265 259 284 302 299 318 311 289 278 8 85 341 335 346 6 350 333 326 13 75 129 134 142 142 136 131 131 133 137 138 134 127 125 136 136 106 135
186 207 178 224 207 186 249 276 277 276 293 296 312 326 340 321 57 76 15 323 324 346 334 336 344 5 40 126 146 142 147 142 138 137 138 143 143 132 127 121 101 91 117 113